This demonstration page uses our WeatherBlox Daily Observations layout. Learn more.

Left ArrowRight Arrow

Hourly Observations for May 3, 2022

Temp ( °F °C ) Dew Point ( °F °C ) Humidity (%) Winds ( mph kmh ) Pressure ( in mb ) Visibility ( mi km ) Precip ( " mm )
12:56 am 00:56 Cloudy with Drizzle 41 5.1 39 3.8 91 91 N 12 19 29.97 1015 6 10 0.01 0.25
1:56 am 01:56 Cloudy with Drizzle 41 4.9 39 3.7 92 92 N 13 20 29.98 1015 4 6 0.01 0.25
2:56 am 02:56 Cloudy with Drizzle 41 4.8 38 3.5 91 91 N 10 17 29.98 1015 6 10 0.01 0.25
3:56 am 03:56 Cloudy 41 4.8 38 3.1 89 89 NNW 14 22 29.98 1015 7 11 0.00 0.00
4:56 am 04:56 Cloudy 41 4.8 37 3 88 88 NNW 10 17 29.99 1016 10 16 0.00 0.00
5:56 am 05:56 Cloudy 41 5 37 3 87 87 NNW 9 15 30.01 1016 10 16 0.00 0.00
6:56 am 06:56 Cloudy 41 5.2 37 2.9 85 85 NNW 10 17 30.02 1017 10 16 0.00 0.00
8:56 am 08:56 Cloudy 43 6.2 37 3 80 80 N 15 24 30.07 1018 10 16 0.00 0.00
9:56 am 09:56 Cloudy 45 7 38 3.1 76 76 NNW 13 20 30.09 1019 10 16 0.00 0.00
10:56 am 10:56 Cloudy 47 8.3 38 3.4 72 72 N 14 22 30.11 1020 10 16 0.00 0.00
11:56 am 11:56 Mostly Cloudy 51 10.3 40 4.2 66 66 N 13 20 30.11 1020 10 16 0.00 0.00
12:56 pm 12:56 Mostly Cloudy 50 10.2 37 3 61 61 NNE 7 11 30.11 1020 10 16 0.00 0.00
1:56 pm 13:56 Cloudy 51 10.7 37 3 59 59 N 6 9 30.13 1020 10 16 0.00 0.00
2:56 pm 14:56 Cloudy 53 11.4 39 3.7 59 59 N 7 11 30.13 1020 10 16 0.00 0.00
3:56 pm 15:56 Mostly Cloudy 52 11.3 38 3.6 59 59 N 7 11 30.13 1020 10 16 0.00 0.00
4:56 pm 16:56 Mostly Cloudy 52 11.3 38 3.3 58 58 N 7 11 30.11 1020 10 16 0.00 0.00
5:56 pm 17:56 Cloudy 53 11.6 38 3.6 58 58 NNE 5 7 30.11 1020 10 16 0.00 0.00
6:56 pm 18:56 Cloudy 53 11.4 38 3.2 57 57 NE 3 6 30.11 1020 10 16 0.00 0.00
7:56 pm 19:56 Cloudy 51 10.7 40 4.6 66 66 ENE 6 9 30.11 1020 10 16 0.00 0.00
8:56 pm 20:56 Mostly Cloudy 51 10.4 39 3.9 64 64 E 5 7 30.13 1020 10 16 0.00 0.00
9:56 pm 21:56 Cloudy 50 9.9 40 4.3 68 68 E 5 7 30.14 1021 10 16 0.00 0.00
10:56 pm 22:56 Cloudy 49 9.2 40 4.4 72 72 E 6 9 30.15 1021 10 16 0.00 0.00
11:56 pm 23:56 Mostly Cloudy 49 9.2 40 4.4 72 72 E 5 7 30.15 1021 10 16 0.00 0.00

Powered by AerisWeather